Index of /20260425/WXO-DD/model_rdps/10km/18/013
Name Last modified Size Description
Parent Directory -
20260425T18Z_MSC_RDPS_AbsoluteVorticity_IsbL-0250_RLatLon0.09_PT013H.grib2 2026-04-25 20:44 628K
20260425T18Z_MSC_RDPS_AbsoluteVorticity_IsbL-0500_RLatLon0.09_PT013H.grib2 2026-04-25 20:44 567K
20260425T18Z_MSC_RDPS_AbsoluteVorticity_IsbL-0700_RLatLon0.09_PT013H.grib2 2026-04-25 20:44 630K
20260425T18Z_MSC_RDPS_AbsoluteVorticity_IsbL-0850_RLatLon0.09_PT013H.grib2 2026-04-25 20:44 783K
20260425T18Z_MSC_RDPS_AirTemp_AGL-120m_RLatLon0.09_PT013H.grib2 2026-04-25 20:44 389K
20260425T18Z_MSC_RDPS_AirTemp_AGL-2m_RLatLon0.09_PT013H.grib2 2026-04-25 20:44 624K
20260425T18Z_MSC_RDPS_AirTemp_AGL-40m_RLatLon0.09_PT013H.grib2 2026-04-25 20:44 402K
20260425T18Z_MSC_RDPS_AirTemp_AGL-80m_RLatLon0.09_PT013H.grib2 2026-04-25 20:44 395K
20260425T18Z_MSC_RDPS_AirTemp_IsbL-0001_RLatLon0.09_PT013H.grib2 2026-04-25 20:44 295K
20260425T18Z_MSC_RDPS_AirTemp_IsbL-0005_RLatLon0.09_PT013H.grib2 2026-04-25 20:44 292K
20260425T18Z_MSC_RDPS_AirTemp_IsbL-0010_RLatLon0.09_PT013H.grib2 2026-04-25 20:44 307K
20260425T18Z_MSC_RDPS_AirTemp_IsbL-0020_RLatLon0.09_PT013H.grib2 2026-04-25 20:44 325K
20260425T18Z_MSC_RDPS_AirTemp_IsbL-0030_RLatLon0.09_PT013H.grib2 2026-04-25 20:44 344K
20260425T18Z_MSC_RDPS_AirTemp_IsbL-0050_RLatLon0.09_PT013H.grib2 2026-04-25 20:44 324K
20260425T18Z_MSC_RDPS_AirTemp_IsbL-0100_RLatLon0.09_PT013H.grib2 2026-04-25 20:44 426K
20260425T18Z_MSC_RDPS_AirTemp_IsbL-0150_RLatLon0.09_PT013H.grib2 2026-04-25 20:44 427K
20260425T18Z_MSC_RDPS_AirTemp_IsbL-0175_RLatLon0.09_PT013H.grib2 2026-04-25 20:44 419K
20260425T18Z_MSC_RDPS_AirTemp_IsbL-0200_RLatLon0.09_PT013H.grib2 2026-04-25 20:44 424K
20260425T18Z_MSC_RDPS_AirTemp_IsbL-0225_RLatLon0.09_PT013H.grib2 2026-04-25 20:44 424K
20260425T18Z_MSC_RDPS_AirTemp_IsbL-0250_RLatLon0.09_PT013H.grib2 2026-04-25 20:44 430K
20260425T18Z_MSC_RDPS_AirTemp_IsbL-0275_RLatLon0.09_PT013H.grib2 2026-04-25 20:44 411K
20260425T18Z_MSC_RDPS_AirTemp_IsbL-0300_RLatLon0.09_PT013H.grib2 2026-04-25 20:44 420K
20260425T18Z_MSC_RDPS_AirTemp_IsbL-0350_RLatLon0.09_PT013H.grib2 2026-04-25 20:44 431K
20260425T18Z_MSC_RDPS_AirTemp_IsbL-0400_RLatLon0.09_PT013H.grib2 2026-04-25 20:44 430K
20260425T18Z_MSC_RDPS_AirTemp_IsbL-0450_RLatLon0.09_PT013H.grib2 2026-04-25 20:44 402K
20260425T18Z_MSC_RDPS_AirTemp_IsbL-0500_RLatLon0.09_PT013H.grib2 2026-04-25 20:44 415K
20260425T18Z_MSC_RDPS_AirTemp_IsbL-0550_RLatLon0.09_PT013H.grib2 2026-04-25 20:44 434K
20260425T18Z_MSC_RDPS_AirTemp_IsbL-0600_RLatLon0.09_PT013H.grib2 2026-04-25 20:44 451K
20260425T18Z_MSC_RDPS_AirTemp_IsbL-0650_RLatLon0.09_PT013H.grib2 2026-04-25 20:44 463K
20260425T18Z_MSC_RDPS_AirTemp_IsbL-0700_RLatLon0.09_PT013H.grib2 2026-04-25 20:44 379K
20260425T18Z_MSC_RDPS_AirTemp_IsbL-0750_RLatLon0.09_PT013H.grib2 2026-04-25 20:44 413K
20260425T18Z_MSC_RDPS_AirTemp_IsbL-0800_RLatLon0.09_PT013H.grib2 2026-04-25 20:44 455K
20260425T18Z_MSC_RDPS_AirTemp_IsbL-0850_RLatLon0.09_PT013H.grib2 2026-04-25 20:44 502K
20260425T18Z_MSC_RDPS_AirTemp_IsbL-0875_RLatLon0.09_PT013H.grib2 2026-04-25 20:44 517K
20260425T18Z_MSC_RDPS_AirTemp_IsbL-0900_RLatLon0.09_PT013H.grib2 2026-04-25 20:44 520K
20260425T18Z_MSC_RDPS_AirTemp_IsbL-0925_RLatLon0.09_PT013H.grib2 2026-04-25 20:44 518K
20260425T18Z_MSC_RDPS_AirTemp_IsbL-0950_RLatLon0.09_PT013H.grib2 2026-04-25 20:44 519K
20260425T18Z_MSC_RDPS_AirTemp_IsbL-0970_RLatLon0.09_PT013H.grib2 2026-04-25 20:44 515K
20260425T18Z_MSC_RDPS_AirTemp_IsbL-0985_RLatLon0.09_PT013H.grib2 2026-04-25 20:44 505K
20260425T18Z_MSC_RDPS_AirTemp_IsbL-1000_RLatLon0.09_PT013H.grib2 2026-04-25 20:44 485K
20260425T18Z_MSC_RDPS_AirTemp_IsbL-1015_RLatLon0.09_PT013H.grib2 2026-04-25 20:44 479K
20260425T18Z_MSC_RDPS_Albedo_Sfc_RLatLon0.09_PT013H.grib2 2026-04-25 20:44 164K
20260425T18Z_MSC_RDPS_CAPE_Sfc_RLatLon0.09_PT013H.grib2 2026-04-25 20:44 1.6M
20260425T18Z_MSC_RDPS_CIN_Sfc_RLatLon0.09_PT013H.grib2 2026-04-25 20:44 1.2M
20260425T18Z_MSC_RDPS_CloudWater_EAtm_RLatLon0.09_PT013H.grib2 2026-04-25 20:44 217K
20260425T18Z_MSC_RDPS_ConvectivePrecip-Accum_Sfc_RLatLon0.09_PT013H.grib2 2026-04-25 20:44 717K
20260425T18Z_MSC_RDPS_DewPointDepression_AGL-2m_RLatLon0.09_PT013H.grib2 2026-04-25 20:44 383K
20260425T18Z_MSC_RDPS_DewPointDepression_IsbL-0001_RLatLon0.09_PT013H.grib2 2026-04-25 20:44 193
20260425T18Z_MSC_RDPS_DewPointDepression_IsbL-0005_RLatLon0.09_PT013H.grib2 2026-04-25 20:44 193
20260425T18Z_MSC_RDPS_DewPointDepression_IsbL-0010_RLatLon0.09_PT013H.grib2 2026-04-25 20:44 193
20260425T18Z_MSC_RDPS_DewPointDepression_IsbL-0020_RLatLon0.09_PT013H.grib2 2026-04-25 20:44 193
20260425T18Z_MSC_RDPS_DewPointDepression_IsbL-0030_RLatLon0.09_PT013H.grib2 2026-04-25 20:44 193
20260425T18Z_MSC_RDPS_DewPointDepression_IsbL-0050_RLatLon0.09_PT013H.grib2 2026-04-25 20:44 93K
20260425T18Z_MSC_RDPS_DewPointDepression_IsbL-0100_RLatLon0.09_PT013H.grib2 2026-04-25 20:44 131K
20260425T18Z_MSC_RDPS_DewPointDepression_IsbL-0150_RLatLon0.09_PT013H.grib2 2026-04-25 20:44 153K
20260425T18Z_MSC_RDPS_DewPointDepression_IsbL-0175_RLatLon0.09_PT013H.grib2 2026-04-25 20:44 191K
20260425T18Z_MSC_RDPS_DewPointDepression_IsbL-0200_RLatLon0.09_PT013H.grib2 2026-04-25 20:44 223K
20260425T18Z_MSC_RDPS_DewPointDepression_IsbL-0225_RLatLon0.09_PT013H.grib2 2026-04-25 20:44 261K
20260425T18Z_MSC_RDPS_DewPointDepression_IsbL-0250_RLatLon0.09_PT013H.grib2 2026-04-25 20:44 303K
20260425T18Z_MSC_RDPS_DewPointDepression_IsbL-0275_RLatLon0.09_PT013H.grib2 2026-04-25 20:44 313K
20260425T18Z_MSC_RDPS_DewPointDepression_IsbL-0300_RLatLon0.09_PT013H.grib2 2026-04-25 20:44 333K
20260425T18Z_MSC_RDPS_DewPointDepression_IsbL-0350_RLatLon0.09_PT013H.grib2 2026-04-25 20:44 341K
20260425T18Z_MSC_RDPS_DewPointDepression_IsbL-0400_RLatLon0.09_PT013H.grib2 2026-04-25 20:44 351K
20260425T18Z_MSC_RDPS_DewPointDepression_IsbL-0450_RLatLon0.09_PT013H.grib2 2026-04-25 20:44 358K
20260425T18Z_MSC_RDPS_DewPointDepression_IsbL-0500_RLatLon0.09_PT013H.grib2 2026-04-25 20:44 365K
20260425T18Z_MSC_RDPS_DewPointDepression_IsbL-0550_RLatLon0.09_PT013H.grib2 2026-04-25 20:44 382K
20260425T18Z_MSC_RDPS_DewPointDepression_IsbL-0600_RLatLon0.09_PT013H.grib2 2026-04-25 20:44 388K
20260425T18Z_MSC_RDPS_DewPointDepression_IsbL-0650_RLatLon0.09_PT013H.grib2 2026-04-25 20:44 388K
20260425T18Z_MSC_RDPS_DewPointDepression_IsbL-0700_RLatLon0.09_PT013H.grib2 2026-04-25 20:44 397K
20260425T18Z_MSC_RDPS_DewPointDepression_IsbL-0750_RLatLon0.09_PT013H.grib2 2026-04-25 20:44 418K
20260425T18Z_MSC_RDPS_DewPointDepression_IsbL-0800_RLatLon0.09_PT013H.grib2 2026-04-25 20:44 445K
20260425T18Z_MSC_RDPS_DewPointDepression_IsbL-0850_RLatLon0.09_PT013H.grib2 2026-04-25 20:44 471K
20260425T18Z_MSC_RDPS_DewPointDepression_IsbL-0875_RLatLon0.09_PT013H.grib2 2026-04-25 20:44 471K
20260425T18Z_MSC_RDPS_DewPointDepression_IsbL-0900_RLatLon0.09_PT013H.grib2 2026-04-25 20:44 461K
20260425T18Z_MSC_RDPS_DewPointDepression_IsbL-0925_RLatLon0.09_PT013H.grib2 2026-04-25 20:44 452K
20260425T18Z_MSC_RDPS_DewPointDepression_IsbL-0950_RLatLon0.09_PT013H.grib2 2026-04-25 20:44 441K
20260425T18Z_MSC_RDPS_DewPointDepression_IsbL-0970_RLatLon0.09_PT013H.grib2 2026-04-25 20:44 429K
20260425T18Z_MSC_RDPS_DewPointDepression_IsbL-0985_RLatLon0.09_PT013H.grib2 2026-04-25 20:44 423K
20260425T18Z_MSC_RDPS_DewPointDepression_IsbL-1000_RLatLon0.09_PT013H.grib2 2026-04-25 20:44 416K
20260425T18Z_MSC_RDPS_DewPointDepression_IsbL-1015_RLatLon0.09_PT013H.grib2 2026-04-25 20:44 407K
20260425T18Z_MSC_RDPS_DewPoint_AGL-2m_RLatLon0.09_PT013H.grib2 2026-04-25 20:44 303K
20260425T18Z_MSC_RDPS_DownwardLongwaveRadiationFlux-Accum_Sfc_RLatLon0.09_PT013H.grib2 2026-04-25 20:44 480K
20260425T18Z_MSC_RDPS_DownwardShortwaveRadiationFlux-Accum_NTAtm_RLatLon0.09_PT013H.grib2 2026-04-25 20:44 116K
20260425T18Z_MSC_RDPS_DownwardShortwaveRadiationFlux-Accum_Sfc_RLatLon0.09_PT013H.grib2 2026-04-25 20:44 519K
20260425T18Z_MSC_RDPS_FreezingRain-Accum1h_Sfc_RLatLon0.09_PT013H.grib2 2026-04-25 20:44 57K
20260425T18Z_MSC_RDPS_FreezingRain-Accum_Sfc_RLatLon0.09_PT013H.grib2 2026-04-25 20:44 71K
20260425T18Z_MSC_RDPS_GeopotentialHeight_IsbL-0001_RLatLon0.09_PT013H.grib2 2026-04-25 20:44 270K
20260425T18Z_MSC_RDPS_GeopotentialHeight_IsbL-0005_RLatLon0.09_PT013H.grib2 2026-04-25 20:44 309K
20260425T18Z_MSC_RDPS_GeopotentialHeight_IsbL-0010_RLatLon0.09_PT013H.grib2 2026-04-25 20:44 307K
20260425T18Z_MSC_RDPS_GeopotentialHeight_IsbL-0020_RLatLon0.09_PT013H.grib2 2026-04-25 20:44 307K
20260425T18Z_MSC_RDPS_GeopotentialHeight_IsbL-0030_RLatLon0.09_PT013H.grib2 2026-04-25 20:44 406K
20260425T18Z_MSC_RDPS_GeopotentialHeight_IsbL-0050_RLatLon0.09_PT013H.grib2 2026-04-25 20:44 311K
20260425T18Z_MSC_RDPS_GeopotentialHeight_IsbL-0100_RLatLon0.09_PT013H.grib2 2026-04-25 20:44 288K
20260425T18Z_MSC_RDPS_GeopotentialHeight_IsbL-0150_RLatLon0.09_PT013H.grib2 2026-04-25 20:44 229K
20260425T18Z_MSC_RDPS_GeopotentialHeight_IsbL-0175_RLatLon0.09_PT013H.grib2 2026-04-25 20:44 232K
20260425T18Z_MSC_RDPS_GeopotentialHeight_IsbL-0200_RLatLon0.09_PT013H.grib2 2026-04-25 20:44 235K
20260425T18Z_MSC_RDPS_GeopotentialHeight_IsbL-0225_RLatLon0.09_PT013H.grib2 2026-04-25 20:44 268K
20260425T18Z_MSC_RDPS_GeopotentialHeight_IsbL-0250_RLatLon0.09_PT013H.grib2 2026-04-25 20:44 269K
20260425T18Z_MSC_RDPS_GeopotentialHeight_IsbL-0275_RLatLon0.09_PT013H.grib2 2026-04-25 20:44 237K
20260425T18Z_MSC_RDPS_GeopotentialHeight_IsbL-0300_RLatLon0.09_PT013H.grib2 2026-04-25 20:44 236K
20260425T18Z_MSC_RDPS_GeopotentialHeight_IsbL-0350_RLatLon0.09_PT013H.grib2 2026-04-25 20:44 232K
20260425T18Z_MSC_RDPS_GeopotentialHeight_IsbL-0400_RLatLon0.09_PT013H.grib2 2026-04-25 20:44 229K
20260425T18Z_MSC_RDPS_GeopotentialHeight_IsbL-0450_RLatLon0.09_PT013H.grib2 2026-04-25 20:44 298K
20260425T18Z_MSC_RDPS_GeopotentialHeight_IsbL-0500_RLatLon0.09_PT013H.grib2 2026-04-25 20:44 293K
20260425T18Z_MSC_RDPS_GeopotentialHeight_IsbL-0550_RLatLon0.09_PT013H.grib2 2026-04-25 20:44 289K
20260425T18Z_MSC_RDPS_GeopotentialHeight_IsbL-0600_RLatLon0.09_PT013H.grib2 2026-04-25 20:44 284K
20260425T18Z_MSC_RDPS_GeopotentialHeight_IsbL-0650_RLatLon0.09_PT013H.grib2 2026-04-25 20:44 282K
20260425T18Z_MSC_RDPS_GeopotentialHeight_IsbL-0700_RLatLon0.09_PT013H.grib2 2026-04-25 20:44 281K
20260425T18Z_MSC_RDPS_GeopotentialHeight_IsbL-0750_RLatLon0.09_PT013H.grib2 2026-04-25 20:44 281K
20260425T18Z_MSC_RDPS_GeopotentialHeight_IsbL-0800_RLatLon0.09_PT013H.grib2 2026-04-25 20:44 286K
20260425T18Z_MSC_RDPS_GeopotentialHeight_IsbL-0850_RLatLon0.09_PT013H.grib2 2026-04-25 20:44 266K
20260425T18Z_MSC_RDPS_GeopotentialHeight_IsbL-0875_RLatLon0.09_PT013H.grib2 2026-04-25 20:44 268K
20260425T18Z_MSC_RDPS_GeopotentialHeight_IsbL-0900_RLatLon0.09_PT013H.grib2 2026-04-25 20:44 271K
20260425T18Z_MSC_RDPS_GeopotentialHeight_IsbL-0925_RLatLon0.09_PT013H.grib2 2026-04-25 20:44 300K
20260425T18Z_MSC_RDPS_GeopotentialHeight_IsbL-0950_RLatLon0.09_PT013H.grib2 2026-04-25 20:44 304K
20260425T18Z_MSC_RDPS_GeopotentialHeight_IsbL-0970_RLatLon0.09_PT013H.grib2 2026-04-25 20:44 308K
20260425T18Z_MSC_RDPS_GeopotentialHeight_IsbL-0985_RLatLon0.09_PT013H.grib2 2026-04-25 20:44 314K
20260425T18Z_MSC_RDPS_GeopotentialHeight_IsbL-1000_RLatLon0.09_PT013H.grib2 2026-04-25 20:44 322K
20260425T18Z_MSC_RDPS_GeopotentialHeight_IsbL-1015_RLatLon0.09_PT013H.grib2 2026-04-25 20:44 332K
20260425T18Z_MSC_RDPS_Humidex_Sfc_RLatLon0.09_PT013H.grib2 2026-04-25 20:44 2.4M
20260425T18Z_MSC_RDPS_IcePellets-Accum1h_Sfc_RLatLon0.09_PT013H.grib2 2026-04-25 20:44 18K
20260425T18Z_MSC_RDPS_IcePellets-Accum_Sfc_RLatLon0.09_PT013H.grib2 2026-04-25 20:44 33K
20260425T18Z_MSC_RDPS_KIndex_Sfc_RLatLon0.09_PT013H.grib2 2026-04-25 20:44 2.4M
20260425T18Z_MSC_RDPS_LatentHeatNetFlux_Sfc_RLatLon0.09_PT013H.grib2 2026-04-25 20:44 304K
20260425T18Z_MSC_RDPS_LiftedIndex-MU-VT_IsbL-0500_RLatLon0.09_PT013H.grib2 2026-04-25 20:44 2.4M
20260425T18Z_MSC_RDPS_NetLongwaveRadiationFlux-Accum_Sfc_RLatLon0.09_PT013H.grib2 2026-04-25 20:44 630K
20260425T18Z_MSC_RDPS_NetShortwaveRadiationFlux-Accum_Sfc_RLatLon0.09_PT013H.grib2 2026-04-25 20:44 513K
20260425T18Z_MSC_RDPS_PlanetaryBoundaryLayerHeight_Sfc_RLatLon0.09_PT013H.grib2 2026-04-25 20:44 1.1M
20260425T18Z_MSC_RDPS_Precip-Accum1h_Sfc_RLatLon0.09_PT013H.grib2 2026-04-25 20:44 1.3M
20260425T18Z_MSC_RDPS_Precip-Accum_Sfc_RLatLon0.09_PT013H.grib2 2026-04-25 20:44 1.6M
20260425T18Z_MSC_RDPS_PrecipRate_Sfc_RLatLon0.09_PT013H.grib2 2026-04-25 20:44 185K
20260425T18Z_MSC_RDPS_PrecipType-Instant_Sfc_RLatLon0.09_PT013H.grib2 2026-04-25 20:44 588K
20260425T18Z_MSC_RDPS_Pressure-Trend3h_Sfc_RLatLon0.09_PT013H.grib2 2026-04-25 20:44 1.2M
20260425T18Z_MSC_RDPS_Pressure_MSL_RLatLon0.09_PT013H.grib2 2026-04-25 20:44 234K
20260425T18Z_MSC_RDPS_Pressure_PVU-1.5_RLatLon0.09_PT013H.grib2 2026-04-25 20:44 2.5M
20260425T18Z_MSC_RDPS_Pressure_PVU-1_RLatLon0.09_PT013H.grib2 2026-04-25 20:44 2.4M
20260425T18Z_MSC_RDPS_Pressure_PVU-2_RLatLon0.09_PT013H.grib2 2026-04-25 20:44 2.4M
20260425T18Z_MSC_RDPS_Pressure_Sfc_RLatLon0.09_PT013H.grib2 2026-04-25 20:44 498K
20260425T18Z_MSC_RDPS_RadiativeTemp_Sfc_RLatLon0.09_PT013H.grib2 2026-04-25 20:44 296K
20260425T18Z_MSC_RDPS_Rain-Accum1h_Sfc_RLatLon0.09_PT013H.grib2 2026-04-25 20:44 608K
20260425T18Z_MSC_RDPS_Rain-Accum_Sfc_RLatLon0.09_PT013H.grib2 2026-04-25 20:44 1.2M
20260425T18Z_MSC_RDPS_RelativeHumidity_AGL-2m_RLatLon0.09_PT013H.grib2 2026-04-25 20:44 1.0M
20260425T18Z_MSC_RDPS_RelativeHumidity_IsbL-0010_RLatLon0.09_PT013H.grib2 2026-04-25 20:44 637K
20260425T18Z_MSC_RDPS_RelativeHumidity_IsbL-0020_RLatLon0.09_PT013H.grib2 2026-04-25 20:44 661K
20260425T18Z_MSC_RDPS_RelativeHumidity_IsbL-0030_RLatLon0.09_PT013H.grib2 2026-04-25 20:44 547K
20260425T18Z_MSC_RDPS_RelativeHumidity_IsbL-0050_RLatLon0.09_PT013H.grib2 2026-04-25 20:44 381K
20260425T18Z_MSC_RDPS_RelativeHumidity_IsbL-0100_RLatLon0.09_PT013H.grib2 2026-04-25 20:44 281K
20260425T18Z_MSC_RDPS_RelativeHumidity_IsbL-0150_RLatLon0.09_PT013H.grib2 2026-04-25 20:44 416K
20260425T18Z_MSC_RDPS_RelativeHumidity_IsbL-0175_RLatLon0.09_PT013H.grib2 2026-04-25 20:44 489K
20260425T18Z_MSC_RDPS_RelativeHumidity_IsbL-0200_RLatLon0.09_PT013H.grib2 2026-04-25 20:44 566K
20260425T18Z_MSC_RDPS_RelativeHumidity_IsbL-0225_RLatLon0.09_PT013H.grib2 2026-04-25 20:44 635K
20260425T18Z_MSC_RDPS_RelativeHumidity_IsbL-0250_RLatLon0.09_PT013H.grib2 2026-04-25 20:44 709K
20260425T18Z_MSC_RDPS_RelativeHumidity_IsbL-0275_RLatLon0.09_PT013H.grib2 2026-04-25 20:44 734K
20260425T18Z_MSC_RDPS_RelativeHumidity_IsbL-0300_RLatLon0.09_PT013H.grib2 2026-04-25 20:44 779K
20260425T18Z_MSC_RDPS_RelativeHumidity_IsbL-0350_RLatLon0.09_PT013H.grib2 2026-04-25 20:44 802K
20260425T18Z_MSC_RDPS_RelativeHumidity_IsbL-0400_RLatLon0.09_PT013H.grib2 2026-04-25 20:44 812K
20260425T18Z_MSC_RDPS_RelativeHumidity_IsbL-0450_RLatLon0.09_PT013H.grib2 2026-04-25 20:44 816K
20260425T18Z_MSC_RDPS_RelativeHumidity_IsbL-0500_RLatLon0.09_PT013H.grib2 2026-04-25 20:44 836K
20260425T18Z_MSC_RDPS_RelativeHumidity_IsbL-0550_RLatLon0.09_PT013H.grib2 2026-04-25 20:44 859K
20260425T18Z_MSC_RDPS_RelativeHumidity_IsbL-0600_RLatLon0.09_PT013H.grib2 2026-04-25 20:44 876K
20260425T18Z_MSC_RDPS_RelativeHumidity_IsbL-0650_RLatLon0.09_PT013H.grib2 2026-04-25 20:44 887K
20260425T18Z_MSC_RDPS_RelativeHumidity_IsbL-0700_RLatLon0.09_PT013H.grib2 2026-04-25 20:44 904K
20260425T18Z_MSC_RDPS_RelativeHumidity_IsbL-0750_RLatLon0.09_PT013H.grib2 2026-04-25 20:44 947K
20260425T18Z_MSC_RDPS_RelativeHumidity_IsbL-0800_RLatLon0.09_PT013H.grib2 2026-04-25 20:44 1.0M
20260425T18Z_MSC_RDPS_RelativeHumidity_IsbL-0850_RLatLon0.09_PT013H.grib2 2026-04-25 20:44 1.0M
20260425T18Z_MSC_RDPS_RelativeHumidity_IsbL-0875_RLatLon0.09_PT013H.grib2 2026-04-25 20:44 1.1M
20260425T18Z_MSC_RDPS_RelativeHumidity_IsbL-0900_RLatLon0.09_PT013H.grib2 2026-04-25 20:44 1.1M
20260425T18Z_MSC_RDPS_RelativeHumidity_IsbL-0925_RLatLon0.09_PT013H.grib2 2026-04-25 20:44 1.1M
20260425T18Z_MSC_RDPS_RelativeHumidity_IsbL-0950_RLatLon0.09_PT013H.grib2 2026-04-25 20:44 1.1M
20260425T18Z_MSC_RDPS_RelativeHumidity_IsbL-0970_RLatLon0.09_PT013H.grib2 2026-04-25 20:44 1.0M
20260425T18Z_MSC_RDPS_RelativeHumidity_IsbL-0985_RLatLon0.09_PT013H.grib2 2026-04-25 20:44 1.0M
20260425T18Z_MSC_RDPS_RelativeHumidity_IsbL-1000_RLatLon0.09_PT013H.grib2 2026-04-25 20:44 1.0M
20260425T18Z_MSC_RDPS_RelativeHumidity_IsbL-1015_RLatLon0.09_PT013H.grib2 2026-04-25 20:44 1.0M
20260425T18Z_MSC_RDPS_Runoff-Accum_Sfc_RLatLon0.09_PT013H.grib2 2026-04-25 20:44 56K
20260425T18Z_MSC_RDPS_SWEATIndex_Sfc_RLatLon0.09_PT013H.grib2 2026-04-25 20:44 2.4M
20260425T18Z_MSC_RDPS_SeeingIndex_EAtm_RLatLon0.09_PT013H.grib2 2026-04-25 20:44 1.0M
20260425T18Z_MSC_RDPS_SensibleHeatNetFlux_Sfc_RLatLon0.09_PT013H.grib2 2026-04-25 20:44 284K
20260425T18Z_MSC_RDPS_ShowalterIndex_IsbL-0500_RLatLon0.09_PT013H.grib2 2026-04-25 20:44 2.6M
20260425T18Z_MSC_RDPS_SkyTransparencyIndex_EAtm_RLatLon0.09_PT013H.grib2 2026-04-25 20:44 700K
20260425T18Z_MSC_RDPS_Snow-Accum1h_Sfc_RLatLon0.09_PT013H.grib2 2026-04-25 20:44 494K
20260425T18Z_MSC_RDPS_Snow-Accum_Sfc_RLatLon0.09_PT013H.grib2 2026-04-25 20:44 746K
20260425T18Z_MSC_RDPS_SnowDensity_Sfc_RLatLon0.09_PT013H.grib2 2026-04-25 20:44 179K
20260425T18Z_MSC_RDPS_SnowDepth_Sfc_RLatLon0.09_PT013H.grib2 2026-04-25 20:44 727K
20260425T18Z_MSC_RDPS_SoilTemp_DBS-0to10cm_RLatLon0.09_PT013H.grib2 2026-04-25 20:44 212K
20260425T18Z_MSC_RDPS_SoilTemp_Sfc_RLatLon0.09_PT013H.grib2 2026-04-25 20:44 276K
20260425T18Z_MSC_RDPS_SoilVolumetricIceContent_Sfc_RLatLon0.09_PT013H.grib2 2026-04-25 20:44 169K
20260425T18Z_MSC_RDPS_SoilVolumetricWaterContent_DBS-0to10cm_RLatLon0.09_PT013H.grib2 2026-04-25 20:44 256K
20260425T18Z_MSC_RDPS_SoilVolumetricWaterContent_DBS-0to1cm_RLatLon0.09_PT013H.grib2 2026-04-25 20:44 337K
20260425T18Z_MSC_RDPS_SpecificHumidity_AGL-120m_RLatLon0.09_PT013H.grib2 2026-04-25 20:44 477K
20260425T18Z_MSC_RDPS_SpecificHumidity_AGL-2m_RLatLon0.09_PT013H.grib2 2026-04-25 20:44 639K
20260425T18Z_MSC_RDPS_SpecificHumidity_AGL-40m_RLatLon0.09_PT013H.grib2 2026-04-25 20:44 481K
20260425T18Z_MSC_RDPS_SpecificHumidity_AGL-80m_RLatLon0.09_PT013H.grib2 2026-04-25 20:44 478K
20260425T18Z_MSC_RDPS_SpecificHumidity_IsbL-0001_RLatLon0.09_PT013H.grib2 2026-04-25 20:44 334K
20260425T18Z_MSC_RDPS_SpecificHumidity_IsbL-0005_RLatLon0.09_PT013H.grib2 2026-04-25 20:44 355K
20260425T18Z_MSC_RDPS_SpecificHumidity_IsbL-0010_RLatLon0.09_PT013H.grib2 2026-04-25 20:44 397K
20260425T18Z_MSC_RDPS_SpecificHumidity_IsbL-0020_RLatLon0.09_PT013H.grib2 2026-04-25 20:44 388K
20260425T18Z_MSC_RDPS_SpecificHumidity_IsbL-0030_RLatLon0.09_PT013H.grib2 2026-04-25 20:44 480K
20260425T18Z_MSC_RDPS_SpecificHumidity_IsbL-0050_RLatLon0.09_PT013H.grib2 2026-04-25 20:44 481K
20260425T18Z_MSC_RDPS_SpecificHumidity_IsbL-0100_RLatLon0.09_PT013H.grib2 2026-04-25 20:44 456K
20260425T18Z_MSC_RDPS_SpecificHumidity_IsbL-0150_RLatLon0.09_PT013H.grib2 2026-04-25 20:44 457K
20260425T18Z_MSC_RDPS_SpecificHumidity_IsbL-0175_RLatLon0.09_PT013H.grib2 2026-04-25 20:44 553K
20260425T18Z_MSC_RDPS_SpecificHumidity_IsbL-0200_RLatLon0.09_PT013H.grib2 2026-04-25 20:44 563K
20260425T18Z_MSC_RDPS_SpecificHumidity_IsbL-0225_RLatLon0.09_PT013H.grib2 2026-04-25 20:44 569K
20260425T18Z_MSC_RDPS_SpecificHumidity_IsbL-0250_RLatLon0.09_PT013H.grib2 2026-04-25 20:44 574K
20260425T18Z_MSC_RDPS_SpecificHumidity_IsbL-0275_RLatLon0.09_PT013H.grib2 2026-04-25 20:44 486K
20260425T18Z_MSC_RDPS_SpecificHumidity_IsbL-0300_RLatLon0.09_PT013H.grib2 2026-04-25 20:44 559K
20260425T18Z_MSC_RDPS_SpecificHumidity_IsbL-0350_RLatLon0.09_PT013H.grib2 2026-04-25 20:44 549K
20260425T18Z_MSC_RDPS_SpecificHumidity_IsbL-0400_RLatLon0.09_PT013H.grib2 2026-04-25 20:44 528K
20260425T18Z_MSC_RDPS_SpecificHumidity_IsbL-0450_RLatLon0.09_PT013H.grib2 2026-04-25 20:44 578K
20260425T18Z_MSC_RDPS_SpecificHumidity_IsbL-0500_RLatLon0.09_PT013H.grib2 2026-04-25 20:44 518K
20260425T18Z_MSC_RDPS_SpecificHumidity_IsbL-0550_RLatLon0.09_PT013H.grib2 2026-04-25 20:44 578K
20260425T18Z_MSC_RDPS_SpecificHumidity_IsbL-0600_RLatLon0.09_PT013H.grib2 2026-04-25 20:44 641K
20260425T18Z_MSC_RDPS_SpecificHumidity_IsbL-0650_RLatLon0.09_PT013H.grib2 2026-04-25 20:44 678K
20260425T18Z_MSC_RDPS_SpecificHumidity_IsbL-0700_RLatLon0.09_PT013H.grib2 2026-04-25 20:44 593K
20260425T18Z_MSC_RDPS_SpecificHumidity_IsbL-0750_RLatLon0.09_PT013H.grib2 2026-04-25 20:44 649K
20260425T18Z_MSC_RDPS_SpecificHumidity_IsbL-0800_RLatLon0.09_PT013H.grib2 2026-04-25 20:44 725K
20260425T18Z_MSC_RDPS_SpecificHumidity_IsbL-0850_RLatLon0.09_PT013H.grib2 2026-04-25 20:44 797K
20260425T18Z_MSC_RDPS_SpecificHumidity_IsbL-0875_RLatLon0.09_PT013H.grib2 2026-04-25 20:44 821K
20260425T18Z_MSC_RDPS_SpecificHumidity_IsbL-0900_RLatLon0.09_PT013H.grib2 2026-04-25 20:44 831K
20260425T18Z_MSC_RDPS_SpecificHumidity_IsbL-0925_RLatLon0.09_PT013H.grib2 2026-04-25 20:44 831K
20260425T18Z_MSC_RDPS_SpecificHumidity_IsbL-0950_RLatLon0.09_PT013H.grib2 2026-04-25 20:44 826K
20260425T18Z_MSC_RDPS_SpecificHumidity_IsbL-0970_RLatLon0.09_PT013H.grib2 2026-04-25 20:44 675K
20260425T18Z_MSC_RDPS_SpecificHumidity_IsbL-0985_RLatLon0.09_PT013H.grib2 2026-04-25 20:44 666K
20260425T18Z_MSC_RDPS_SpecificHumidity_IsbL-1000_RLatLon0.09_PT013H.grib2 2026-04-25 20:44 657K
20260425T18Z_MSC_RDPS_SpecificHumidity_IsbL-1015_RLatLon0.09_PT013H.grib2 2026-04-25 20:44 648K
20260425T18Z_MSC_RDPS_SpecificHumidity_Sfc_RLatLon0.09_PT013H.grib2 2026-04-25 20:44 287K
20260425T18Z_MSC_RDPS_StormRelativeHelicity_EtaL-10000_RLatLon0.09_PT013H.grib2 2026-04-25 20:44 1.1M
20260425T18Z_MSC_RDPS_StormSeverityIndex_EtaL-10000_RLatLon0.09_PT013H.grib2 2026-04-25 20:44 1.2M
20260425T18Z_MSC_RDPS_Thickness_IsbL-0850to0700_RLatLon0.09_PT013H.grib2 2026-04-25 20:44 177K
20260425T18Z_MSC_RDPS_Thickness_IsbL-1000to0500_RLatLon0.09_PT013H.grib2 2026-04-25 20:44 201K
20260425T18Z_MSC_RDPS_Thickness_IsbL-1000to0850_RLatLon0.09_PT013H.grib2 2026-04-25 20:44 183K
20260425T18Z_MSC_RDPS_TotalCloudCover_Sfc_RLatLon0.09_PT013H.grib2 2026-04-25 20:44 678K
20260425T18Z_MSC_RDPS_TotalTotalsIndex_Sfc_RLatLon0.09_PT013H.grib2 2026-04-25 20:44 2.4M
20260425T18Z_MSC_RDPS_UVIndex-ClearSky_Sfc_RLatLon0.09_PT013H.grib2 2026-04-25 20:44 116K
20260425T18Z_MSC_RDPS_UVIndex_Sfc_RLatLon0.09_PT013H.grib2 2026-04-25 20:44 183K
20260425T18Z_MSC_RDPS_UpwardLongwaveRadiationFlux_NTAtm_RLatLon0.09_PT013H.grib2 2026-04-25 20:44 491K
20260425T18Z_MSC_RDPS_UpwardShortwaveRadiationFlux_NTAtm_RLatLon0.09_PT013H.grib2 2026-04-25 20:44 129K
20260425T18Z_MSC_RDPS_VerticalVelocity_IsbL-0250_RLatLon0.09_PT013H.grib2 2026-04-25 20:44 585K
20260425T18Z_MSC_RDPS_VerticalVelocity_IsbL-0500_RLatLon0.09_PT013H.grib2 2026-04-25 20:44 546K
20260425T18Z_MSC_RDPS_VerticalVelocity_IsbL-0700_RLatLon0.09_PT013H.grib2 2026-04-25 20:44 596K
20260425T18Z_MSC_RDPS_VerticalVelocity_IsbL-0850_RLatLon0.09_PT013H.grib2 2026-04-25 20:44 651K
20260425T18Z_MSC_RDPS_VerticalWindShear_EtaL-6500_RLatLon0.09_PT013H.grib2 2026-04-25 20:44 1.2M
20260425T18Z_MSC_RDPS_WindChill_Sfc_RLatLon0.09_PT013H.grib2 2026-04-25 20:44 1.2M
20260425T18Z_MSC_RDPS_WindDir_AGL-10m_RLatLon0.09_PT013H.grib2 2026-04-25 20:44 1.0M
20260425T18Z_MSC_RDPS_WindDir_AGL-120m_RLatLon0.09_PT013H.grib2 2026-04-25 20:44 614K
20260425T18Z_MSC_RDPS_WindDir_AGL-40m_RLatLon0.09_PT013H.grib2 2026-04-25 20:44 647K
20260425T18Z_MSC_RDPS_WindDir_AGL-80m_RLatLon0.09_PT013H.grib2 2026-04-25 20:44 626K
20260425T18Z_MSC_RDPS_WindDir_IsbL-0001_RLatLon0.09_PT013H.grib2 2026-04-25 20:44 281K
20260425T18Z_MSC_RDPS_WindDir_IsbL-0005_RLatLon0.09_PT013H.grib2 2026-04-25 20:44 364K
20260425T18Z_MSC_RDPS_WindDir_IsbL-0010_RLatLon0.09_PT013H.grib2 2026-04-25 20:44 381K
20260425T18Z_MSC_RDPS_WindDir_IsbL-0020_RLatLon0.09_PT013H.grib2 2026-04-25 20:44 412K
20260425T18Z_MSC_RDPS_WindDir_IsbL-0030_RLatLon0.09_PT013H.grib2 2026-04-25 20:44 423K
20260425T18Z_MSC_RDPS_WindDir_IsbL-0050_RLatLon0.09_PT013H.grib2 2026-04-25 20:44 444K
20260425T18Z_MSC_RDPS_WindDir_IsbL-0100_RLatLon0.09_PT013H.grib2 2026-04-25 20:44 437K
20260425T18Z_MSC_RDPS_WindDir_IsbL-0150_RLatLon0.09_PT013H.grib2 2026-04-25 20:44 427K
20260425T18Z_MSC_RDPS_WindDir_IsbL-0175_RLatLon0.09_PT013H.grib2 2026-04-25 20:44 439K
20260425T18Z_MSC_RDPS_WindDir_IsbL-0200_RLatLon0.09_PT013H.grib2 2026-04-25 20:44 447K
20260425T18Z_MSC_RDPS_WindDir_IsbL-0225_RLatLon0.09_PT013H.grib2 2026-04-25 20:44 450K
20260425T18Z_MSC_RDPS_WindDir_IsbL-0250_RLatLon0.09_PT013H.grib2 2026-04-25 20:44 448K
20260425T18Z_MSC_RDPS_WindDir_IsbL-0275_RLatLon0.09_PT013H.grib2 2026-04-25 20:44 474K
20260425T18Z_MSC_RDPS_WindDir_IsbL-0300_RLatLon0.09_PT013H.grib2 2026-04-25 20:44 475K
20260425T18Z_MSC_RDPS_WindDir_IsbL-0350_RLatLon0.09_PT013H.grib2 2026-04-25 20:44 506K
20260425T18Z_MSC_RDPS_WindDir_IsbL-0400_RLatLon0.09_PT013H.grib2 2026-04-25 20:44 522K
20260425T18Z_MSC_RDPS_WindDir_IsbL-0450_RLatLon0.09_PT013H.grib2 2026-04-25 20:44 532K
20260425T18Z_MSC_RDPS_WindDir_IsbL-0500_RLatLon0.09_PT013H.grib2 2026-04-25 20:44 549K
20260425T18Z_MSC_RDPS_WindDir_IsbL-0550_RLatLon0.09_PT013H.grib2 2026-04-25 20:44 568K
20260425T18Z_MSC_RDPS_WindDir_IsbL-0600_RLatLon0.09_PT013H.grib2 2026-04-25 20:44 603K
20260425T18Z_MSC_RDPS_WindDir_IsbL-0650_RLatLon0.09_PT013H.grib2 2026-04-25 20:44 645K
20260425T18Z_MSC_RDPS_WindDir_IsbL-0700_RLatLon0.09_PT013H.grib2 2026-04-25 20:44 694K
20260425T18Z_MSC_RDPS_WindDir_IsbL-0750_RLatLon0.09_PT013H.grib2 2026-04-25 20:44 755K
20260425T18Z_MSC_RDPS_WindDir_IsbL-0800_RLatLon0.09_PT013H.grib2 2026-04-25 20:44 823K
20260425T18Z_MSC_RDPS_WindDir_IsbL-0850_RLatLon0.09_PT013H.grib2 2026-04-25 20:44 894K
20260425T18Z_MSC_RDPS_WindDir_IsbL-0875_RLatLon0.09_PT013H.grib2 2026-04-25 20:44 914K
20260425T18Z_MSC_RDPS_WindDir_IsbL-0900_RLatLon0.09_PT013H.grib2 2026-04-25 20:44 925K
20260425T18Z_MSC_RDPS_WindDir_IsbL-0925_RLatLon0.09_PT013H.grib2 2026-04-25 20:44 930K
20260425T18Z_MSC_RDPS_WindDir_IsbL-0950_RLatLon0.09_PT013H.grib2 2026-04-25 20:44 925K
20260425T18Z_MSC_RDPS_WindDir_IsbL-0970_RLatLon0.09_PT013H.grib2 2026-04-25 20:44 931K
20260425T18Z_MSC_RDPS_WindDir_IsbL-0985_RLatLon0.09_PT013H.grib2 2026-04-25 20:44 943K
20260425T18Z_MSC_RDPS_WindDir_IsbL-1000_RLatLon0.09_PT013H.grib2 2026-04-25 20:44 957K
20260425T18Z_MSC_RDPS_WindDir_IsbL-1015_RLatLon0.09_PT013H.grib2 2026-04-25 20:44 972K
20260425T18Z_MSC_RDPS_WindGust-Max_AGL-10m_RLatLon0.09_PT013H.grib2 2026-04-25 20:44 950K
20260425T18Z_MSC_RDPS_WindGust-Min_AGL-10m_RLatLon0.09_PT013H.grib2 2026-04-25 20:44 963K
20260425T18Z_MSC_RDPS_WindGust_AGL-10m_RLatLon0.09_PT013H.grib2 2026-04-25 20:44 1.0M
20260425T18Z_MSC_RDPS_WindSpeed_AGL-10m_RLatLon0.09_PT013H.grib2 2026-04-25 20:44 844K
20260425T18Z_MSC_RDPS_WindSpeed_AGL-120m_RLatLon0.09_PT013H.grib2 2026-04-25 20:44 552K
20260425T18Z_MSC_RDPS_WindSpeed_AGL-40m_RLatLon0.09_PT013H.grib2 2026-04-25 20:44 544K
20260425T18Z_MSC_RDPS_WindSpeed_AGL-80m_RLatLon0.09_PT013H.grib2 2026-04-25 20:44 553K
20260425T18Z_MSC_RDPS_WindSpeed_IsbL-0001_RLatLon0.09_PT013H.grib2 2026-04-25 20:44 249K
20260425T18Z_MSC_RDPS_WindSpeed_IsbL-0005_RLatLon0.09_PT013H.grib2 2026-04-25 20:44 298K
20260425T18Z_MSC_RDPS_WindSpeed_IsbL-0010_RLatLon0.09_PT013H.grib2 2026-04-25 20:44 310K
20260425T18Z_MSC_RDPS_WindSpeed_IsbL-0020_RLatLon0.09_PT013H.grib2 2026-04-25 20:44 329K
20260425T18Z_MSC_RDPS_WindSpeed_IsbL-0030_RLatLon0.09_PT013H.grib2 2026-04-25 20:44 331K
20260425T18Z_MSC_RDPS_WindSpeed_IsbL-0050_RLatLon0.09_PT013H.grib2 2026-04-25 20:44 473K
20260425T18Z_MSC_RDPS_WindSpeed_IsbL-0100_RLatLon0.09_PT013H.grib2 2026-04-25 20:44 442K
20260425T18Z_MSC_RDPS_WindSpeed_IsbL-0150_RLatLon0.09_PT013H.grib2 2026-04-25 20:44 384K
20260425T18Z_MSC_RDPS_WindSpeed_IsbL-0175_RLatLon0.09_PT013H.grib2 2026-04-25 20:44 432K
20260425T18Z_MSC_RDPS_WindSpeed_IsbL-0200_RLatLon0.09_PT013H.grib2 2026-04-25 20:44 450K
20260425T18Z_MSC_RDPS_WindSpeed_IsbL-0225_RLatLon0.09_PT013H.grib2 2026-04-25 20:44 456K
20260425T18Z_MSC_RDPS_WindSpeed_IsbL-0250_RLatLon0.09_PT013H.grib2 2026-04-25 20:44 459K
20260425T18Z_MSC_RDPS_WindSpeed_IsbL-0275_RLatLon0.09_PT013H.grib2 2026-04-25 20:44 478K
20260425T18Z_MSC_RDPS_WindSpeed_IsbL-0300_RLatLon0.09_PT013H.grib2 2026-04-25 20:44 474K
20260425T18Z_MSC_RDPS_WindSpeed_IsbL-0350_RLatLon0.09_PT013H.grib2 2026-04-25 20:44 486K
20260425T18Z_MSC_RDPS_WindSpeed_IsbL-0400_RLatLon0.09_PT013H.grib2 2026-04-25 20:44 486K
20260425T18Z_MSC_RDPS_WindSpeed_IsbL-0450_RLatLon0.09_PT013H.grib2 2026-04-25 20:44 467K
20260425T18Z_MSC_RDPS_WindSpeed_IsbL-0500_RLatLon0.09_PT013H.grib2 2026-04-25 20:44 467K
20260425T18Z_MSC_RDPS_WindSpeed_IsbL-0550_RLatLon0.09_PT013H.grib2 2026-04-25 20:44 590K
20260425T18Z_MSC_RDPS_WindSpeed_IsbL-0600_RLatLon0.09_PT013H.grib2 2026-04-25 20:44 601K
20260425T18Z_MSC_RDPS_WindSpeed_IsbL-0650_RLatLon0.09_PT013H.grib2 2026-04-25 20:44 619K
20260425T18Z_MSC_RDPS_WindSpeed_IsbL-0700_RLatLon0.09_PT013H.grib2 2026-04-25 20:44 685K
20260425T18Z_MSC_RDPS_WindSpeed_IsbL-0750_RLatLon0.09_PT013H.grib2 2026-04-25 20:44 670K
20260425T18Z_MSC_RDPS_WindSpeed_IsbL-0800_RLatLon0.09_PT013H.grib2 2026-04-25 20:44 716K
20260425T18Z_MSC_RDPS_WindSpeed_IsbL-0850_RLatLon0.09_PT013H.grib2 2026-04-25 20:44 774K
20260425T18Z_MSC_RDPS_WindSpeed_IsbL-0875_RLatLon0.09_PT013H.grib2 2026-04-25 20:44 793K
20260425T18Z_MSC_RDPS_WindSpeed_IsbL-0900_RLatLon0.09_PT013H.grib2 2026-04-25 20:44 852K
20260425T18Z_MSC_RDPS_WindSpeed_IsbL-0925_RLatLon0.09_PT013H.grib2 2026-04-25 20:44 862K
20260425T18Z_MSC_RDPS_WindSpeed_IsbL-0950_RLatLon0.09_PT013H.grib2 2026-04-25 20:44 861K
20260425T18Z_MSC_RDPS_WindSpeed_IsbL-0970_RLatLon0.09_PT013H.grib2 2026-04-25 20:44 857K
20260425T18Z_MSC_RDPS_WindSpeed_IsbL-0985_RLatLon0.09_PT013H.grib2 2026-04-25 20:44 853K
20260425T18Z_MSC_RDPS_WindSpeed_IsbL-1000_RLatLon0.09_PT013H.grib2 2026-04-25 20:44 849K
20260425T18Z_MSC_RDPS_WindSpeed_IsbL-1015_RLatLon0.09_PT013H.grib2 2026-04-25 20:44 841K
20260425T18Z_MSC_RDPS_WindU_AGL-10m_RLatLon0.09_PT013H.grib2 2026-04-25 20:44 434K
20260425T18Z_MSC_RDPS_WindU_AGL-120m_RLatLon0.09_PT013H.grib2 2026-04-25 20:44 419K
20260425T18Z_MSC_RDPS_WindU_AGL-40m_RLatLon0.09_PT013H.grib2 2026-04-25 20:44 423K
20260425T18Z_MSC_RDPS_WindU_AGL-80m_RLatLon0.09_PT013H.grib2 2026-04-25 20:44 421K
20260425T18Z_MSC_RDPS_WindU_IsbL-0001_RLatLon0.09_PT013H.grib2 2026-04-25 20:44 290K
20260425T18Z_MSC_RDPS_WindU_IsbL-0005_RLatLon0.09_PT013H.grib2 2026-04-25 20:44 290K
20260425T18Z_MSC_RDPS_WindU_IsbL-0010_RLatLon0.09_PT013H.grib2 2026-04-25 20:44 305K
20260425T18Z_MSC_RDPS_WindU_IsbL-0020_RLatLon0.09_PT013H.grib2 2026-04-25 20:44 361K
20260425T18Z_MSC_RDPS_WindU_IsbL-0030_RLatLon0.09_PT013H.grib2 2026-04-25 20:44 361K
20260425T18Z_MSC_RDPS_WindU_IsbL-0050_RLatLon0.09_PT013H.grib2 2026-04-25 20:44 360K
20260425T18Z_MSC_RDPS_WindU_IsbL-0100_RLatLon0.09_PT013H.grib2 2026-04-25 20:44 339K
20260425T18Z_MSC_RDPS_WindU_IsbL-0150_RLatLon0.09_PT013H.grib2 2026-04-25 20:44 402K
20260425T18Z_MSC_RDPS_WindU_IsbL-0175_RLatLon0.09_PT013H.grib2 2026-04-25 20:44 427K
20260425T18Z_MSC_RDPS_WindU_IsbL-0200_RLatLon0.09_PT013H.grib2 2026-04-25 20:44 345K
20260425T18Z_MSC_RDPS_WindU_IsbL-0225_RLatLon0.09_PT013H.grib2 2026-04-25 20:44 348K
20260425T18Z_MSC_RDPS_WindU_IsbL-0250_RLatLon0.09_PT013H.grib2 2026-04-25 20:44 349K
20260425T18Z_MSC_RDPS_WindU_IsbL-0275_RLatLon0.09_PT013H.grib2 2026-04-25 20:44 365K
20260425T18Z_MSC_RDPS_WindU_IsbL-0300_RLatLon0.09_PT013H.grib2 2026-04-25 20:44 360K
20260425T18Z_MSC_RDPS_WindU_IsbL-0350_RLatLon0.09_PT013H.grib2 2026-04-25 20:44 370K
20260425T18Z_MSC_RDPS_WindU_IsbL-0400_RLatLon0.09_PT013H.grib2 2026-04-25 20:44 474K
20260425T18Z_MSC_RDPS_WindU_IsbL-0450_RLatLon0.09_PT013H.grib2 2026-04-25 20:44 472K
20260425T18Z_MSC_RDPS_WindU_IsbL-0500_RLatLon0.09_PT013H.grib2 2026-04-25 20:44 473K
20260425T18Z_MSC_RDPS_WindU_IsbL-0550_RLatLon0.09_PT013H.grib2 2026-04-25 20:44 477K
20260425T18Z_MSC_RDPS_WindU_IsbL-0600_RLatLon0.09_PT013H.grib2 2026-04-25 20:44 487K
20260425T18Z_MSC_RDPS_WindU_IsbL-0650_RLatLon0.09_PT013H.grib2 2026-04-25 20:44 504K
20260425T18Z_MSC_RDPS_WindU_IsbL-0700_RLatLon0.09_PT013H.grib2 2026-04-25 20:44 508K
20260425T18Z_MSC_RDPS_WindU_IsbL-0750_RLatLon0.09_PT013H.grib2 2026-04-25 20:44 535K
20260425T18Z_MSC_RDPS_WindU_IsbL-0800_RLatLon0.09_PT013H.grib2 2026-04-25 20:44 588K
20260425T18Z_MSC_RDPS_WindU_IsbL-0850_RLatLon0.09_PT013H.grib2 2026-04-25 20:44 636K
20260425T18Z_MSC_RDPS_WindU_IsbL-0875_RLatLon0.09_PT013H.grib2 2026-04-25 20:44 652K
20260425T18Z_MSC_RDPS_WindU_IsbL-0900_RLatLon0.09_PT013H.grib2 2026-04-25 20:44 660K
20260425T18Z_MSC_RDPS_WindU_IsbL-0925_RLatLon0.09_PT013H.grib2 2026-04-25 20:44 660K
20260425T18Z_MSC_RDPS_WindU_IsbL-0950_RLatLon0.09_PT013H.grib2 2026-04-25 20:44 657K
20260425T18Z_MSC_RDPS_WindU_IsbL-0970_RLatLon0.09_PT013H.grib2 2026-04-25 20:44 653K
20260425T18Z_MSC_RDPS_WindU_IsbL-0985_RLatLon0.09_PT013H.grib2 2026-04-25 20:44 790K
20260425T18Z_MSC_RDPS_WindU_IsbL-1000_RLatLon0.09_PT013H.grib2 2026-04-25 20:44 786K
20260425T18Z_MSC_RDPS_WindU_IsbL-1015_RLatLon0.09_PT013H.grib2 2026-04-25 20:44 781K
20260425T18Z_MSC_RDPS_WindV_AGL-10m_RLatLon0.09_PT013H.grib2 2026-04-25 20:44 430K
20260425T18Z_MSC_RDPS_WindV_AGL-120m_RLatLon0.09_PT013H.grib2 2026-04-25 20:44 418K
20260425T18Z_MSC_RDPS_WindV_AGL-40m_RLatLon0.09_PT013H.grib2 2026-04-25 20:44 421K
20260425T18Z_MSC_RDPS_WindV_AGL-80m_RLatLon0.09_PT013H.grib2 2026-04-25 20:44 420K
20260425T18Z_MSC_RDPS_WindV_IsbL-0001_RLatLon0.09_PT013H.grib2 2026-04-25 20:44 290K
20260425T18Z_MSC_RDPS_WindV_IsbL-0005_RLatLon0.09_PT013H.grib2 2026-04-25 20:44 332K
20260425T18Z_MSC_RDPS_WindV_IsbL-0010_RLatLon0.09_PT013H.grib2 2026-04-25 20:44 304K
20260425T18Z_MSC_RDPS_WindV_IsbL-0020_RLatLon0.09_PT013H.grib2 2026-04-25 20:44 362K
20260425T18Z_MSC_RDPS_WindV_IsbL-0030_RLatLon0.09_PT013H.grib2 2026-04-25 20:44 360K
20260425T18Z_MSC_RDPS_WindV_IsbL-0050_RLatLon0.09_PT013H.grib2 2026-04-25 20:44 356K
20260425T18Z_MSC_RDPS_WindV_IsbL-0100_RLatLon0.09_PT013H.grib2 2026-04-25 20:44 362K
20260425T18Z_MSC_RDPS_WindV_IsbL-0150_RLatLon0.09_PT013H.grib2 2026-04-25 20:44 398K
20260425T18Z_MSC_RDPS_WindV_IsbL-0175_RLatLon0.09_PT013H.grib2 2026-04-25 20:44 424K
20260425T18Z_MSC_RDPS_WindV_IsbL-0200_RLatLon0.09_PT013H.grib2 2026-04-25 20:44 341K
20260425T18Z_MSC_RDPS_WindV_IsbL-0225_RLatLon0.09_PT013H.grib2 2026-04-25 20:44 345K
20260425T18Z_MSC_RDPS_WindV_IsbL-0250_RLatLon0.09_PT013H.grib2 2026-04-25 20:44 346K
20260425T18Z_MSC_RDPS_WindV_IsbL-0275_RLatLon0.09_PT013H.grib2 2026-04-25 20:44 362K
20260425T18Z_MSC_RDPS_WindV_IsbL-0300_RLatLon0.09_PT013H.grib2 2026-04-25 20:44 382K
20260425T18Z_MSC_RDPS_WindV_IsbL-0350_RLatLon0.09_PT013H.grib2 2026-04-25 20:44 389K
20260425T18Z_MSC_RDPS_WindV_IsbL-0400_RLatLon0.09_PT013H.grib2 2026-04-25 20:44 366K
20260425T18Z_MSC_RDPS_WindV_IsbL-0450_RLatLon0.09_PT013H.grib2 2026-04-25 20:44 365K
20260425T18Z_MSC_RDPS_WindV_IsbL-0500_RLatLon0.09_PT013H.grib2 2026-04-25 20:44 365K
20260425T18Z_MSC_RDPS_WindV_IsbL-0550_RLatLon0.09_PT013H.grib2 2026-04-25 20:44 472K
20260425T18Z_MSC_RDPS_WindV_IsbL-0600_RLatLon0.09_PT013H.grib2 2026-04-25 20:44 482K
20260425T18Z_MSC_RDPS_WindV_IsbL-0650_RLatLon0.09_PT013H.grib2 2026-04-25 20:44 498K
20260425T18Z_MSC_RDPS_WindV_IsbL-0700_RLatLon0.09_PT013H.grib2 2026-04-25 20:44 518K
20260425T18Z_MSC_RDPS_WindV_IsbL-0750_RLatLon0.09_PT013H.grib2 2026-04-25 20:44 544K
20260425T18Z_MSC_RDPS_WindV_IsbL-0800_RLatLon0.09_PT013H.grib2 2026-04-25 20:44 571K
20260425T18Z_MSC_RDPS_WindV_IsbL-0850_RLatLon0.09_PT013H.grib2 2026-04-25 20:44 630K
20260425T18Z_MSC_RDPS_WindV_IsbL-0875_RLatLon0.09_PT013H.grib2 2026-04-25 20:44 645K
20260425T18Z_MSC_RDPS_WindV_IsbL-0900_RLatLon0.09_PT013H.grib2 2026-04-25 20:44 654K
20260425T18Z_MSC_RDPS_WindV_IsbL-0925_RLatLon0.09_PT013H.grib2 2026-04-25 20:44 660K
20260425T18Z_MSC_RDPS_WindV_IsbL-0950_RLatLon0.09_PT013H.grib2 2026-04-25 20:44 652K
20260425T18Z_MSC_RDPS_WindV_IsbL-0970_RLatLon0.09_PT013H.grib2 2026-04-25 20:44 651K
20260425T18Z_MSC_RDPS_WindV_IsbL-0985_RLatLon0.09_PT013H.grib2 2026-04-25 20:44 649K
20260425T18Z_MSC_RDPS_WindV_IsbL-1000_RLatLon0.09_PT013H.grib2 2026-04-25 20:44 784K
20260425T18Z_MSC_RDPS_WindV_IsbL-1015_RLatLon0.09_PT013H.grib2 2026-04-25 20:44 777K